[[{"header":{"parameterUnit":"m.s-1","parameterCategory":1,"la1":30.2992,"la2":30.254,"lo1":-89.0895,"lo2":-89.0443,"dy":0.0025,"dx":0.0025,"nx":19,"ny":19,"refTime":"2026-03-23T03:00:00:Z","depth":0,"parameterNumber":2,"parameterNumberName":"U-component_of_WINDS"},"data":[0,0,0,1.5465,1.5466,1.5481,1.5481,1.5526,1.5526,0,0,0,0,0,0,0,0,0,0,0,1.5474,1.5475,1.5465,1.5466,1.5481,1.5481,1.5525,1.5526,0,0,0,0,0,0,0,0,0,0,0,1.5474,1.5475,1.5476,1.5466,1.5481,1.5481,1.5525,1.5505,0,0,0,0,0,0,0,0,0,0,1.5486,1.5508,1.5475,1.5476,1.5466,1.5481,1.5481,1.5504,1.5507,1.5529,0,1.5551,0,1.554,1.5531,1.5531,0,0,0,1.5456,1.5506,1.5497,1.5476,1.5466,1.5481,1.5471,1.5505,1.5508,1.5533,1.5552,1.5553,1.554,1.5531,1.5531,1.5691,1.5693,0,0,1.5455,1.5485,1.5495,1.55,1.5497,1.5471,1.5472,1.5506,1.553,1.5552,1.5553,1.5541,1.5531,1.5532,1.569,1.5692,0,0,0,1.5459,1.5485,1.5475,1.5499,1.5499,1.5472,1.5473,1.5528,1.5522,1.5554,1.5542,1.5532,1.5533,1.5689,1.5691,1.5779,0,0,0,1.5458,1.5487,1.5475,1.5493,1.5499,1.5514,1.5494,1.552,1.5523,1.5541,1.5532,1.5533,1.5687,1.569,1.5774,1.5816,0,0,0,1.5469,1.5488,1.5495,1.5495,1.5502,1.5512,1.5508,1.552,1.5516,1.5531,1.5534,1.5686,1.5689,1.5769,1.5808,1.5868,0,0,0,1.5488,1.5573,1.5497,1.5587,1.5502,1.5566,1.5508,1.5554,1.5577,1.5532,1.5688,1.5691,1.5767,1.5803,1.5863,1.5923,1.5951,0,0,1.5612,1.5589,1.564,1.5572,1.5657,1.5562,1.5661,1.5654,1.5629,1.5673,1.5676,1.5776,1.5808,1.5867,1.6095,1.6117,0,0,0,1.5689,1.5726,1.5742,1.5765,1.5762,1.5763,1.5738,1.5736,1.5771,1.5657,1.5812,1.583,1.5863,1.5891,1.591,1.5937,1.5704,1.5704,1.5704,1.5906,1.5869,1.5951,1.5916,1.5939,1.5913,1.5929,1.5922,1.5878,1.5916,1.5929,1.6071,1.6105,1.6119,1.6148,1.5957,1.5957,1.5957,1.5958,1.6084,1.6131,1.607,1.6128,1.6089,1.6138,1.6117,1.6085,1.6125,1.6058,1.6086,1.6017,1.6144,1.6168,1.5964,1.5963,1.5962,1.5962,1.5961,1.6222,1.6238,1.6234,1.6264,1.6292,1.6255,1.6297,1.626,1.6225,1.6252,1.6263,1.6261,1.6256,1.626,1.626,1.6261,1.6261,1.6262,1.6262,1.6368,1.636,1.6399,1.6404,1.6415,1.6424,1.64,1.641,1.6412,1.6382,1.6381,1.6335,1.6163,1.6122,1.6269,1.6268,1.6267,1.6266,1.6266,1.6563,1.6513,1.6574,1.6585,1.6588,1.662,1.6572,1.6595,1.6598,1.6621,1.6568,1.6447,1.6421,1.6406,1.6371,1.6575,1.6575,1.6575,1.6575,1.6681,1.6664,1.6718,1.6738,1.6754,1.6717,1.6789,1.6772,1.6747,1.6747,1.6712,1.6662,1.6648,1.6631,1.6611,1.6578,1.6829,1.683,1.683,1.6799,1.6782,1.685,1.6824,1.6824,1.6826,1.6893,1.6919,1.688,1.6839,1.6746,1.6736,1.6655,1.663,1.6588,1.6558,1.6496,0,0]},{"header":{"parameterUnit":"m.s-1","parameterCategory":1,"la1":30.2992,"la2":30.254,"lo1":-89.0895,"lo2":-89.0443,"dy":0.0025,"dx":0.0025,"nx":19,"ny":19,"refTime":"2026-03-23T03:00:00:Z","depth":0,"parameterNumber":3,"parameterNumberName":"V-component_of_WINDS"},"data":[0,0,0,1.684,1.6845,1.7085,1.7086,1.7377,1.738,0,0,0,0,0,0,0,0,0,0,0,1.6762,1.6764,1.6839,1.6845,1.7084,1.7086,1.7377,1.738,0,0,0,0,0,0,0,0,0,0,0,1.6762,1.6764,1.6766,1.6846,1.7084,1.7086,1.7376,1.72,0,0,0,0,0,0,0,0,0,0,1.697,1.6893,1.6763,1.6766,1.6848,1.7084,1.7086,1.7192,1.7211,1.7263,0,1.7309,0,1.7349,1.7398,1.7399,0,0,0,1.685,1.6877,1.6947,1.6766,1.685,1.7084,1.6978,1.7203,1.7225,1.7288,1.7314,1.7325,1.7354,1.74,1.7402,1.7686,1.7687,0,0,1.6837,1.6802,1.6932,1.6961,1.6925,1.697,1.6985,1.7216,1.7241,1.7315,1.7332,1.7359,1.7402,1.7404,1.7685,1.7686,0,0,0,1.6796,1.6793,1.6858,1.6949,1.6993,1.6977,1.6994,1.7231,1.7255,1.7335,1.7362,1.7404,1.7407,1.7684,1.7686,1.7705,0,0,0,1.6788,1.6769,1.6851,1.6833,1.6988,1.7115,1.7003,1.7239,1.7266,1.7361,1.7404,1.741,1.7683,1.7685,1.7702,1.772,0,0,0,1.6749,1.6764,1.6797,1.683,1.6932,1.7112,1.715,1.7245,1.7282,1.74,1.7411,1.7682,1.7685,1.77,1.7716,1.7783,0,0,0,1.6697,1.6813,1.6796,1.6935,1.693,1.7123,1.7149,1.7295,1.7398,1.7405,1.7683,1.7685,1.7699,1.7714,1.778,1.7832,1.7851,0,0,1.6824,1.6827,1.6911,1.6903,1.709,1.7089,1.7279,1.7407,1.745,1.7604,1.7612,1.7703,1.7716,1.7782,1.7971,1.7986,0,0,0,1.6939,1.6999,1.7056,1.7152,1.7252,1.7337,1.744,1.7486,1.7618,1.7523,1.7747,1.7756,1.7796,1.7823,1.7835,1.787,1.7697,1.7696,1.7696,1.7068,1.7115,1.7256,1.7331,1.7424,1.7525,1.7604,1.7683,1.7706,1.7757,1.7804,1.7913,1.7942,1.7952,1.7988,1.7836,1.7836,1.7836,1.7836,1.7255,1.7346,1.7369,1.7515,1.7562,1.7684,1.7785,1.7795,1.7914,1.7883,1.7921,1.7882,1.7967,1.8001,1.7838,1.7838,1.7838,1.7838,1.7837,1.7344,1.7395,1.7449,1.7589,1.7692,1.7763,1.7874,1.7915,1.7954,1.7991,1.8041,1.8041,1.8044,1.8012,1.8013,1.8013,1.8013,1.8014,1.8014,1.7414,1.7474,1.7564,1.7675,1.774,1.783,1.7929,1.7993,1.8074,1.8094,1.8095,1.8109,1.7967,1.7929,1.802,1.8019,1.8018,1.8017,1.8017,1.7585,1.7551,1.769,1.7754,1.7886,1.7982,1.8031,1.8157,1.8215,1.8268,1.8273,1.8162,1.8168,1.8159,1.8128,1.8265,1.8265,1.8265,1.8265,1.7658,1.7664,1.7813,1.7912,1.8014,1.807,1.8221,1.8297,1.8371,1.8409,1.8395,1.8357,1.8346,1.8359,1.8345,1.8316,1.8498,1.8498,1.8499,1.7764,1.7781,1.7904,1.7976,1.808,1.8168,1.831,1.842,1.8497,1.8509,1.8439,1.8429,1.8369,1.8347,1.8358,1.8336,1.8284,0,0]}]]